TIANMU-1 11

Last updated on Mon Jun 22 2026 00:02:46 GMT+0000 (Coordinated Universal Time)

1 58645U 23205A 26172.50950514 .00004206 00000+0 16121-3 0 9992 2 58645 97.3448 193.9985 0008423 2.1524 357.9750 15.27032570138189
UTC large
Height (km)
Speed (km/s)
/
Latitude / Longitude
Inclination (degrees)
Orbital Period (minutes)
Azimuth
Elevation
Range (km)
Doppler Factor

Next 0 passes for location: London (51.5072 / 0.1276)

No passes found over London.
TIANMU-1 11